RH
10 18 24 24 30 32 29 20 14 10 10 8 8 9 9 8 16 38 37 40 46 57 54 54 40 35 33 34 35 35 37 37 36 33 43 54 55 59 57 54 51 44 39 39 43 45 46 46 44
13 24 30 24 32 35 29 16 12 11 9 8 8 8 8 12 16 27 26 31 50 52 60 56 48 41 36 37 41 42 41 38 34 33 40 52 55 62 60 58 56 50 45 43 45 47 51 54 54
21 24 27 30 33 35 27 14 10 10 8 8 8 8 9 18 17 26 26 22 43 54 58 63 60 48 42 41 44 46 46 40 34 35 42 53 57 61 64 61 59 55 51 51 50 49 49 49 52
22 22 20 30 33 24 19 15 9 9 9 8 8 9 10 11 16 19 24 18 19 60 63 65 65 56 50 46 49 51 47 41 38 37 43 53 59 60 65 64 62 59 55 55 56 56 56 54 51
29 22 32 32 28 21 15 12 11 9 10 9 8 10 11 13 16 18 20 16 19 49 66 70 70 60 51 50 52 56 49 44 40 41 44 51 60 62 66 66 65 62 59 57 60 58 60 59 57
24 21 34 37 28 19 15 12 11 11 10 10 10 10 10 15 16 18 19 18 17 26 53 71 73 70 53 54 55 56 51 46 42 42 44 53 62 64 66 67 66 64 62 59 62 62 61 59 58
25 31 35 31 25 21 16 12 12 12 12 12 13 14 16 19 18 18 18 19 22 34 34 54 80 75 65 57 59 59 53 49 46 45 46 54 62 66 69 69 65 64 64 62 60 63 64 61 61
19 26 29 26 25 24 15 13 11 12 12 12 13 16 15 18 18 18 17 17 20 34 37 44 54 80 78 62 61 60 53 52 49 48 47 51 57 66 69 69 66 65 65 64 62 65 67 64 62
19 30 30 26 23 19 15 18 15 11 11 12 14 14 13 16 16 16 16 16 18 26 46 42 61 72 88 69 60 61 58 56 53 52 52 50 53 58 60 60 60 61 64 65 66 65 67 66 65
23 34 28 20 18 20 18 17 15 14 13 13 12 13 14 14 15 16 16 16 17 38 27 67 66 70 91 82 66 62 60 58 56 55 55 52 52 51 53 55 57 61 66 69 70 70 69 69 66
22 28 22 20 17 18 19 18 16 14 17 14 15 14 14 13 14 16 15 16 17 22 50 28 64 70 79 96 78 73 68 65 62 59 58 58 55 54 56 56 58 61 66 71 70 72 70 67 65
29 24 21 19 17 18 18 17 17 14 14 12 12 12 12 12 14 14 16 15 16 17 24 66 74 84 83 85 95 95 85 78 69 65 64 64 62 61 59 57 58 61 64 66 67 66 68 66 68
30 27 24 23 21 19 18 16 16 16 14 12 12 11 11 11 12 13 14 15 16 22 35 64 75 79 93 97 94 96 99 90 86 76 69 67 66 64 62 61 59 61 64 67 69 65 67 70 71
30 29 28 25 22 21 21 20 17 15 14 13 12 12 12 11 12 14 14 15 21 24 32 33 32 39 76 95 99 91 91 98 99 94 86 85 79 73 67 69 72 76 68 72 74 63 65 68 71
30 35 30 28 23 23 20 24 22 18 16 15 14 15 13 12 13 14 17 24 29 34 39 37 42 36 36 62 92 88 82 94 89 90 97 90 89 86 78 74 72 78 81 80 85 81 68 76 74
38 36 44 30 27 25 27 36 23 18 16 16 16 16 14 12 13 15 19 27 34 37 42 46 42 45 39 34 54 80 88 80 78 84 84 86 87 87 87 82 87 78 88 82 87 84 78 82 85
46 56 47 39 28 29 30 35 24 29 25 17 16 15 14 13 15 22 27 34 39 44 47 51 50 47 38 30 28 40 67 82 89 82 79 84 82 82 80 87 86 89 90 85 79 79 78 74 89
55 54 44 41 29 38 43 37 27 26 28 25 16 14 14 14 23 32 38 43 46 48 51 52 53 58 56 46 31 24 22 32 75 83 87 89 89 85 81 81 84 84 85 91 87 82 83 82 77
41 41 39 33 32 39 43 42 45 37 36 34 19 14 14 25 40 43 47 51 49 52 51 53 52 53 53 55 52 44 36 31 29 32 61 80 84 88 76 86 87 81 79 84 94 87 80 87 88
34 38 44 38 32 38 43 50 40 35 37 36 32 14 16 43 46 49 51 52 54 56 59 55 56 56 54 51 57 62 60 51 45 33 40 46 63 77 94 87 86 91 86 74 78 91 80 96 85
32 42 43 42 36 41 48 52 45 34 32 32 28 18 17 43 48 52 55 57 59 60 63 64 63 56 50 50 51 55 62 65 66 62 52 40 51 72 78 86 89 85 92 88 79 93 95 99 97
44 36 58 65 74 86 64 85 52 42 38 33 35 25 44 50 49 53 56 60 62 63 61 65 65 60 63 63 62 73 79 74 70 75 68 63 50 49 62 65 85 82 84 80 76 82 88 67 69
56 63 69 72 79 76 68 86 55 40 39 34 41 40 51 51 51 54 57 60 61 55 58 65 62 62 66 71 77 82 83 85 85 87 86 75 68 60 59 66 88 94 80 70 70 74 76 66 69
59 70 65 70 82 95 61 66 59 47 46 58 54 49 51 51 55 59 60 60 61 61 57 58 58 59 62 67 76 80 83 84 84 84 90 96 92 71 58 62 77 88 94 80 62 66 77 61 60
76 79 94 93 97 86 38 64 64 47 53 63 68 73 57 57 60 64 67 71 67 74 72 66 61 63 65 69 73 80 89 87 92 91 88 94 98 96 77 66 67 73 95 92 90 71 76 80 76
74 75 87 94 92 87 64 92 74 77 90 93 87 83 70 60 60 65 70 74 77 80 81 76 71 74 76 78 78 82 86 87 95 99 98 98 99 98 98 83 61 68 74 65 69 78 74 79 80
73 91 57 86 74 90 73 65 69 83 92 91 80 75 62 57 61 66 71 75 77 80 82 83 82 78 82 84 85 84 86 86 92 98 99 100 99 98 99 94 67 74 67 41 71 91 74 81 83
61 57 95 96 93 89 59 74 97 98 100 95 81 57 63 69 66 69 75 77 80 82 88 87 85 89 94 91 87 88 88 90 90 98 99 100 100 99 100 95 78 79 63 66 84 89 79 86 78
59 68 78 88 97 96 85 99 100 100 99 95 82 65 61 65 70 73 78 82 85 87 93 100 92 94 96 96 91 90 92 94 93 95 100 100 99 100 99 99 94 81 74 76 82 78 88 86 91
39 53 61 97 92 98 98 99 92 84 88 82 55 62 66 74 74 79 83 87 92 98 99 99 100 99 94 95 93 94 98 100 98 100 98 99 100 100 100 100 82 77 77 76 82 67 85 82 100
Wind_Speed
4 3 3 6 3 3 4 8 4 4 4 9 9 10 6 2 4 5 8 7 4 5 4 8 18 20 20 20 19 17 15 15 14 13 14 15 14 12 10 9 8 7 8 9 10 10 9 10 11
2 2 6 6 3 2 5 10 5 3 7 8 9 8 5 4 16 11 3 6 4 5 4 6 16 21 21 22 20 19 17 15 15 15 14 14 15 13 11 9 8 8 8 8 9 9 9 9 9
6 5 3 3 3 6 5 3 2 7 7 7 4 6 3 6 9 6 2 3 7 6 7 6 10 22 22 22 21 19 17 16 16 14 15 15 15 14 12 10 9 9 9 8 8 8 8 8 8
5 2 5 0 9 10 7 15 5 6 5 5 4 2 5 1 5 9 5 8 5 5 8 8 9 21 25 22 21 20 19 17 16 16 15 15 16 16 13 11 10 10 9 8 8 8 8 8 9
6 5 2 4 9 9 14 22 11 3 7 9 10 4 2 6 10 7 5 5 5 6 10 9 10 10 27 25 22 20 19 18 17 16 16 16 17 17 14 12 11 10 10 9 9 8 9 9 9
9 3 2 5 9 11 10 19 17 7 3 4 2 2 3 13 14 9 3 5 9 8 8 11 11 11 21 25 23 22 20 19 18 17 17 18 18 18 16 14 12 12 11 11 10 10 9 10 10
5 3 6 8 13 17 16 29 3 3 3 3 5 3 9 15 9 5 5 1 7 11 11 10 11 12 16 25 24 24 22 19 18 18 18 18 19 19 18 16 15 14 14 13 13 11 11 11 12
12 2 7 7 10 12 17 29 0 4 3 2 3 3 3 9 2 4 1 0 9 12 13 12 14 15 16 22 26 26 24 22 20 20 19 19 19 19 19 18 17 17 16 16 15 13 13 13 14
15 2 11 9 7 13 21 17 28 6 2 1 3 3 10 8 7 10 4 3 8 14 12 14 11 14 15 19 26 27 27 24 23 22 21 21 21 21 21 21 20 20 20 19 18 16 15 15 16
6 3 8 7 15 13 27 19 26 15 11 11 12 15 16 17 18 9 6 7 11 13 13 9 8 11 13 15 25 29 28 26 26 25 24 23 23 22 22 22 21 22 22 21 20 19 18 19 18
8 13 13 20 27 31 22 29 33 18 10 18 12 16 16 14 17 14 11 10 12 9 7 8 6 6 8 13 18 24 28 27 27 27 26 25 24 24 24 24 24 24 24 25 25 24 23 22 20
11 21 21 26 28 27 20 33 25 22 20 27 28 28 16 10 10 9 9 11 16 13 6 4 3 5 7 5 19 20 23 25 28 29 28 27 26 26 26 26 25 26 26 28 27 27 26 24 22
12 11 22 26 27 24 27 20 25 31 28 29 29 34 28 19 17 14 10 11 15 9 10 11 8 7 8 7 18 19 16 19 23 27 29 29 29 28 29 28 26 24 24 24 26 29 29 26 25
20 27 29 28 30 28 22 26 27 23 29 32 28 33 32 24 21 17 15 14 10 9 6 7 6 5 6 11 12 15 21 23 23 23 24 27 28 28 28 30 29 27 25 27 23 26 29 28 23
20 17 20 16 15 9 22 29 22 33 36 39 33 36 32 27 20 15 14 16 9 6 4 5 3 8 9 8 15 17 15 17 22 26 27 28 28 27 28 28 31 31 28 27 27 24 24 26 23
12 11 15 5 13 21 19 36 12 26 25 33 38 37 33 25 18 19 19 14 8 5 2 3 11 11 14 13 14 15 17 20 21 21 26 29 30 31 31 32 33 33 33 32 29 28 28 27 27
6 13 15 26 15 19 14 27 20 24 28 35 35 32 36 24 21 24 18 13 9 5 3 4 9 14 15 16 16 20 21 20 21 24 24 26 29 33 33 38 37 36 38 40 38 36 33 33 35
6 8 14 21 13 13 20 22 22 27 29 27 28 26 31 25 28 25 23 17 11 6 3 7 11 14 16 16 18 19 20 25 31 28 25 25 30 34 34 36 39 43 44 39 41 42 40 37 38
18 18 19 21 16 12 18 19 10 25 32 26 24 9 9 23 31 27 20 15 9 5 5 7 10 11 12 12 13 16 21 24 26 28 36 34 28 30 38 40 41 40 52 50 44 45 43 39 38
18 17 19 22 18 11 16 21 18 21 22 31 23 19 15 36 29 24 17 11 6 3 5 8 10 12 13 14 15 16 19 22 25 30 31 32 34 35 34 43 45 43 40 49 51 49 43 40 40
18 9 17 19 16 14 12 20 18 26 24 30 29 30 31 45 38 30 22 15 9 4 8 12 15 16 16 17 19 20 21 22 25 25 28 36 38 37 35 37 46 48 46 45 46 46 40 39 29
17 7 3 12 9 9 10 12 24 18 20 14 24 24 36 40 37 31 25 18 11 8 10 15 16 16 17 19 20 21 24 27 28 30 30 30 36 46 42 37 38 49 48 44 44 46 40 35 41
3 7 5 3 7 11 13 7 21 2 14 10 11 19 33 34 35 29 23 14 8 7 12 16 16 16 17 18 19 21 24 26 29 32 36 34 34 40 43 38 32 45 51 48 50 47 47 39 46
4 4 3 3 1 9 15 14 18 12 7 6 8 15 37 36 31 26 20 11 12 9 12 19 21 21 21 20 20 21 24 25 29 31 34 37 35 35 42 44 32 38 48 48 51 49 45 48 53
5 5 3 3 4 6 6 7 13 10 11 6 15 21 33 35 30 24 21 16 15 15 19 23 24 23 24 23 22 23 23 25 28 28 30 35 36 35 35 41 38 34 41 44 44 47 46 48 46
6 8 4 5 2 4 5 5 5 9 22 24 29 38 33 32 30 24 20 17 17 17 20 23 26 26 27 25 23 23 23 25 27 26 27 30 31 33 35 34 41 37 34 37 37 46 47 49 47
3 6 2 6 5 4 5 4 7 13 8 22 25 30 30 30 26 23 20 18 17 19 21 24 27 27 28 27 26 24 23 24 26 26 25 27 27 31 32 29 35 39 28 41 43 44 44 42 47
7 6 2 2 3 4 4 1 5 15 12 16 16 21 27 25 23 20 21 17 17 19 21 23 26 27 29 28 27 27 26 24 25 27 26 27 27 28 26 23 26 34 32 37 39 42 43 43 45
7 9 1 3 3 2 3 3 1 8 9 12 14 21 24 26 22 19 15 14 16 18 20 25 27 28 30 30 28 28 28 25 23 24 23 24 25 25 24 28 26 31 34 35 40 43 42 38 42
9 17 14 3 2 2 4 2 4 7 1 10 19 24 24 22 15 14 14 15 18 21 23 25 27 27 27 28 28 27 27 26 25 24 23 22 23 21 18 19 24 29 30 34 39 38 41 40 42
Wind_Direction
300 114 334 315 43 85 244 263 291 335 45 67 73 66 116 309 83 152 97 78 7 357 234 204 197 194 188 182 181 183 188 186 185 184 184 184 185 182 174 169 166 171 174 175 180 185 191 200 209
255 269 314 281 122 248 266 251 157 82 111 76 57 62 63 104 97 110 199 33 41 333 319 215 201 203 199 190 187 188 192 192 192 189 188 188 189 188 186 181 175 175 180 185 188 193 199 207 213
99 322 312 169 193 206 245 107 229 118 84 67 52 80 75 110 93 99 45 311 128 340 301 280 231 211 207 203 194 194 195 196 196 198 194 191 194 194 194 192 190 188 188 191 196 206 210 216 221
360 311 248 125 263 271 257 286 226 128 106 118 86 75 106 209 156 162 225 274 294 167 282 268 267 219 214 211 206 201 199 199 201 201 201 197 198 200 200 202 201 200 200 203 206 209 221 229 229
315 274 259 258 268 261 270 278 288 172 157 178 159 188 116 158 155 165 229 286 329 216 223 265 255 240 216 216 213 209 205 203 202 204 203 203 205 204 207 210 210 212 210 214 217 221 230 238 239
280 233 311 255 265 270 278 280 264 182 198 285 307 245 238 169 167 164 148 301 313 309 243 244 248 247 218 216 215 213 210 208 206 204 204 206 207 209 211 214 217 218 221 224 224 228 236 246 250
216 20 258 278 284 299 304 310 342 72 34 357 66 75 106 120 123 129 158 346 299 298 305 261 247 239 224 219 218 216 212 210 209 208 208 208 208 211 215 218 220 222 222 226 231 235 241 246 250
253 163 271 265 285 288 290 299 223 128 244 152 106 169 194 129 163 332 97 94 281 279 287 305 262 246 237 224 217 216 214 211 210 209 212 212 212 214 217 221 222 225 225 226 232 238 243 247 250
275 226 258 257 255 270 305 343 325 291 336 286 133 263 239 259 269 296 299 245 264 256 281 294 305 250 242 229 219 217 216 213 212 212 213 215 215 217 219 221 222 225 226 227 229 235 242 246 249
184 230 245 245 268 293 308 316 320 325 328 296 246 259 253 258 269 261 239 247 243 251 260 263 294 296 251 241 217 215 219 219 217 216 217 218 219 221 223 225 226 226 228 229 232 235 239 242 245
253 245 262 266 275 289 297 306 308 314 310 301 301 250 232 252 244 242 246 237 250 292 216 266 263 297 278 228 223 221 222 223 223 222 222 223 224 224 225 225 227 227 227 229 231 233 237 241 244
267 273 271 275 275 274 282 289 286 291 284 301 298 302 285 255 240 248 233 260 246 267 211 203 226 260 270 301 218 223 229 229 228 229 228 227 227 229 229 230 228 230 229 232 234 237 239 243 245
271 274 288 298 298 302 306 295 284 275 290 288 288 287 289 267 260 247 254 245 254 185 127 163 182 212 213 228 220 226 227 230 234 234 236 236 233 232 234 234 234 233 231 232 237 238 239 243 245
288 287 282 284 288 292 292 288 284 286 293 281 273 274 276 275 241 227 235 233 189 180 131 133 167 171 202 214 230 239 239 230 239 237 233 236 236 234 233 233 231 234 237 235 238 241 238 235 239
302 311 302 285 273 269 281 277 265 279 274 269 268 262 263 258 225 206 205 147 151 144 159 203 229 229 230 217 222 230 227 243 245 238 237 239 237 232 229 230 230 234 235 238 240 244 236 236 230
298 292 291 242 261 267 252 268 262 266 261 256 260 256 250 238 209 203 175 158 149 154 107 193 252 262 260 248 236 229 232 233 234 242 251 240 244 237 236 231 228 228 235 235 237 237 228 228 232
227 262 260 285 253 261 250 269 289 324 301 255 251 260 233 224 190 164 156 160 151 133 157 260 271 276 262 258 249 243 239 239 238 240 241 252 249 243 243 238 232 222 229 234 234 237 235 231 228
256 256 279 287 302 333 312 299 304 302 306 316 257 250 219 208 159 148 144 145 144 160 224 273 275 274 274 270 260 256 250 241 239 237 239 244 254 257 251 244 242 236 228 228 228 231 233 231 230
256 266 279 291 308 305 289 285 320 314 308 298 281 215 202 152 133 131 129 133 154 193 260 284 288 293 301 294 286 271 266 258 250 241 241 240 242 257 256 255 249 248 235 228 228 225 230 228 227
259 275 288 293 304 315 308 298 299 295 282 285 295 212 225 127 119 113 109 107 88 41 338 317 306 310 314 306 302 296 288 280 269 257 249 245 241 243 249 258 256 251 247 237 236 233 230 225 224
258 256 277 284 303 303 308 292 291 270 272 273 278 254 193 138 126 112 99 96 95 57 347 322 317 318 315 314 309 302 295 290 289 282 267 248 242 240 247 255 252 256 251 244 242 240 230 204 219
284 217 11 350 357 289 53 299 276 281 290 292 246 285 109 107 102 103 101 88 73 37 335 321 327 329 327 324 320 318 316 310 304 300 289 272 249 246 247 250 257 247 251 248 245 243 245 235 233
282 61 45 336 296 305 276 251 274 314 284 280 310 137 107 105 109 107 105 102 83 11 341 334 341 345 341 338 332 324 321 316 309 306 299 287 273 255 252 252 256 249 246 248 251 245 243 235 209
56 61 6 306 269 258 270 226 281 256 275 319 17 119 115 103 96 95 93 87 60 22 352 345 348 350 345 339 332 329 323 318 310 308 304 301 293 271 257 253 259 250 246 247 251 250 243 220 218
97 69 327 287 212 255 274 257 250 293 318 283 136 88 81 87 82 72 64 58 48 11 355 352 352 352 346 340 335 328 328 324 316 312 309 304 302 293 276 261 249 254 248 249 246 249 241 223 226
148 143 186 254 255 319 334 252 269 6 92 84 87 88 75 74 73 67 61 50 33 13 359 352 351 352 349 345 341 331 328 328 321 315 310 301 302 298 293 270 244 253 253 253 241 246 238 235 232
171 194 177 290 279 266 235 281 71 60 49 92 83 82 77 71 66 60 49 33 16 3 358 355 352 352 352 351 345 339 332 329 327 316 314 314 309 300 296 276 255 249 261 262 229 236 236 233 227
156 153 139 193 263 248 267 22 33 21 93 70 71 81 86 76 60 55 48 28 9 0 358 354 356 357 356 354 353 346 339 332 330 325 318 314 312 300 289 284 261 242 245 244 238 237 234 234 239
188 230 135 159 233 285 311 80 350 68 67 85 84 82 78 77 68 57 47 26 9 1 5 357 1 2 359 359 359 351 346 339 329 328 327 319 309 304 281 265 260 243 246 244 244 242 238 236 230
224 220 207 180 240 327 347 111 125 95 148 140 110 87 79 79 77 61 38 19 13 8 9 4 4 5 2 1 4 0 356 349 345 337 333 328 324 321 298 275 251 248 246 245 242 244 230 236 226